Stations météo

réclame
Mon MeteoGroup
Leutkirch-Herlazhofen, Allemagne (10945): Température de l'air & dewpoint: 08.07.2020 15:00:00 - 14.07.2020 15:00:00 (CEST)Leutkirch-Herlazhofen, Allemagne (10945): Température de l'air 5cm & Température de l'air -5cm: 08.07.2020 15:00:00 - 14.07.2020 15:00:00 (CEST)Leutkirch-Herlazhofen, Allemagne (10945): Température de l'air -20cm & Température de l'air -100cm: 08.07.2020 15:00:00 - 14.07.2020 15:00:00 (CEST)Leutkirch-Herlazhofen, Allemagne (10945): Vitesse du vent & gusts: 08.07.2020 15:00:00 - 14.07.2020 15:00:00 (CEST)Leutkirch-Herlazhofen, Allemagne (10945): Direction du vent: 08.07.2020 15:00:00 - 14.07.2020 15:00:00 (CEST)Leutkirch-Herlazhofen, Allemagne (10945): reduced air pressure: 08.07.2020 15:00:00 - 14.07.2020 15:00:00 (CEST)Leutkirch-Herlazhofen, Allemagne (10945): visibility: 08.07.2020 15:00:00 - 14.07.2020 15:00:00 (CEST)Leutkirch-Herlazhofen, Allemagne (10945): Ensoleillement: 08.07.2020 15:00:00 - 14.07.2020 15:00:00 (CEST)Leutkirch-Herlazhofen, Allemagne (10945): Quantités de précipitations: 08.07.2020 15:00:00 - 14.07.2020 15:00:00 (CEST)
Date & Time tt [°C] td [°C] tt 5cm [°C] tt -5cm [°C] tt -20cm [°C] tt -100cm [°C] ff [km/h] ff [knt] fx [km/h] fx [knt] dd ppp [hPa] vv [km] sd [min] rr [mm]
14.07.2020 15:00:00 22,3 7,9 26,4 28,2 18,4 16,5 3 2 19 10 WSW 1012,6 52 43 0,0
14.07.2020 14:00:00 21,8 7,5 26,4 26,6 17,7 16,5 8 5 17 9 WNW 1013,2 64 39 0,0
14.07.2020 13:00:00 21,7 7,5 26,2 25,5 17,1 16,5 6 3 13 7 NNW 1013,6 69 60 0,0
14.07.2020 12:00:00 20,3 7,0 23,9 22,8 16,6 16,5 8 4 14 8 ENE 1014,4 55 60 0,0
14.07.2020 11:00:00 19,9 9,7 24,2 20,2 16,3 16,5 7 4 14 8 NE 1014,9 75 60 0,0
14.07.2020 10:00:00 18,0 10,9 20,9 17,6 16,1 16,5 6 3 11 6 NNW 1015,6 52 60 0,0
14.07.2020 09:00:00 14,9 10,5 15,5 14,2 16,2 16,5 0 0 4 2 N 1016,6 48 37 0,0
14.07.2020 08:00:00 11,3 9,1 10,7 12,7 16,4 16,5 2 1 4 2 ESE 1017,7 47 11 0,0
14.07.2020 07:00:00 8,9 7,7 8,9 11,7 16,7 16,5 3 2 4 2 E 1018,8 36 12 0,0
14.07.2020 06:00:00 7,1 6,5 4,4 11,9 17,1 16,5 0 0 4 2 N 1019,4 36 0 0,0
14.07.2020 05:00:00 7,5 6,7 4,4 12,4 17,4 16,5 0 0 4 2 N 1019,4 38 0 0,0
14.07.2020 04:00:00 8,0 7,1 5,7 13,0 17,7 16,5 3 2 4 2 SE 1019,5 32 0 0,0
14.07.2020 03:00:00 8,4 7,3 6,0 13,6 18,1 16,5 3 2 5 3 S 1019,7 40 0 0,0
14.07.2020 02:00:00 9,3 7,7 6,2 14,4 18,4 16,5 1 1 5 3 E 1019,9 57 0 0,0
14.07.2020 01:00:00 9,9 8,5 7,0 15,3 18,7 16,5 2 1 4 2 SW 1020,0 52 0 0,0
14.07.2020 00:00:00 10,1 7,8 7,7 16,3 19,0 16,5 3 1 8 4 SSE 1020,2 61 0 0,0
13.07.2020 23:00:00 11,6 9,0 8,8 17,5 19,2 16,5 2 1 5 3 S 1020,0 75 0 0,0
13.07.2020 22:00:00 14,4 10,7 11,6 18,9 19,4 16,5 4 2 9 5 ENE 1019,1 54 8 0,0
13.07.2020 21:00:00 17,8 8,4 15,0 20,3 19,4 16,5 6 3 12 7 NE 1017,9 75 36 0,0
13.07.2020 20:00:00 19,1 8,1 19,5 21,7 19,3 16,5 9 5 18 10 NE 1017,6 75 57 0,0
13.07.2020 19:00:00 20,5 7,9 22,4 22,9 19,1 16,6 10 5 19 10 NE 1017,4 62 60 0,0
13.07.2020 18:00:00 20,8 8,2 22,8 23,7 18,8 16,6 11 6 20 11 NE 1017,5 49 60 0,0
13.07.2020 17:00:00 20,8 7,4 24,1 24,4 18,4 16,6 11 6 20 11 NE 1018,0 75 60 0,0
13.07.2020 16:00:00 20,8 8,1 24,8 23,7 18,0 16,6 11 6 20 11 ENE 1018,2 61 60 0,0
13.07.2020 15:00:00 20,3 8,6 22,4 23,7 17,5 16,6 10 5 24 13 ENE 1018,6 66 60 0,0
13.07.2020 14:00:00 19,9 7,9 24,4 22,9 17,0 16,6 16 9 25 13 NE 1019,1 75 60 0,0
13.07.2020 13:00:00 19,6 8,2 23,9 21,5 16,6 16,6 13 7 29 15 NE 1019,7 71 60 0,0
13.07.2020 12:00:00 18,6 8,5 22,2 20,0 16,2 16,6 18 10 28 15 NE 1020,4 53 60 0,0
13.07.2020 11:00:00 17,9 8,3 20,3 18,3 16,0 16,6 16 9 28 15 ENE 1020,6 54 60 0,0
13.07.2020 10:00:00 16,3 9,0 18,2 16,2 15,9 16,6 13 7 21 12 ENE 1021,1 75 60 0,0
13.07.2020 09:00:00 14,9 8,2 16,2 14,2 15,9 16,6 12 6 21 12 NE 1021,7 48 60 0,0
13.07.2020 08:00:00 12,5 7,7 13,5 12,0 16,1 16,6 9 5 16 9 NE 1022,5 56 60 0,0
13.07.2020 07:00:00 10,4 6,7 8,9 11,1 16,4 16,6 5 3 12 7 NNW 1023,1 75 53 0,0
13.07.2020 06:00:00 8,7 6,2 5,3 11,1 16,8 16,6 5 3 9 5 NNW 1023,4 58 0 0,0
13.07.2020 05:00:00 7,0 5,4 3,7 11,6 17,1 16,6 4 2 8 4 NNW 1023,9 54 0 0,0
13.07.2020 04:00:00 7,2 5,4 4,5 12,1 17,5 16,6 4 2 6 3 N 1024,2 61 0 0,0
13.07.2020 03:00:00 8,0 6,2 4,6 12,8 17,8 16,6 4 2 9 5 N 1024,4 48 0 0,0
13.07.2020 02:00:00 9,2 6,8 5,8 13,5 18,2 16,6 5 3 11 6 NNE 1024,2 63 0 0,0
13.07.2020 01:00:00 9,4 7,1 6,6 14,3 18,5 16,6 4 2 9 5 NNW 1024,7 65 0 0,0
13.07.2020 00:00:00 10,6 6,7 7,2 15,2 18,9 16,6 3 1 8 4 NNE 1024,4 70 0 0,0
12.07.2020 23:00:00 13,1 7,0 9,6 16,2 19,1 16,6 8 4 13 7 NE 1024,1 64 0 0,0
12.07.2020 22:00:00 14,9 7,5 10,9 17,5 19,4 16,6 8 5 14 8 NE 1023,7 72 7 0,0
12.07.2020 21:00:00 16,7 8,0 14,0 19,0 19,5 16,6 9 5 24 13 NE 1023,1 75 60 0,0
12.07.2020 20:00:00 18,5 8,0 18,6 20,6 19,5 16,7 11 6 24 13 NE 1022,5 66 60 0,0
12.07.2020 19:00:00 19,4 7,5 20,8 22,0 19,3 16,7 13 7 25 13 NE 1022,5 75 60 0,0
12.07.2020 18:00:00 20,0 8,2 22,4 23,0 19,1 16,7 13 7 26 14 NE 1022,3 74 60 0,0
12.07.2020 17:00:00 19,8 7,3 22,3 23,5 18,8 16,7 15 8 26 14 NE 1022,5 40 60 0,0
12.07.2020 16:00:00 19,8 7,6 23,1 23,4 18,4 16,7 14 7 29 15 ENE 1022,7 74 59 0,0
12.07.2020 15:00:00 19,4 8,8 22,4 22,9 18,0 16,7 16 9 26 14 ENE 1023,0 51 49 0,0
12.07.2020 14:00:00 18,7 9,5 21,7 23,0 17,5 16,7 17 9 29 16 ENE 1023,0 75 56 0,0
12.07.2020 13:00:00 19,0 10,8 22,4 22,1 17,1 16,7 17 9 31 17 NE 1023,1 75 60 0,0
12.07.2020 12:00:00 17,8 8,9 21,2 21,0 16,7 16,7 15 8 27 14 ENE 1023,5 75 57 0,0
12.07.2020 11:00:00 16,5 12,2 20,4 19,2 16,4 16,7 12 6 23 12 NE 1023,8 57 59 0,0
12.07.2020 10:00:00 15,8 11,3 17,0 17,2 16,2 16,7 13 7 19 10 ENE 1023,9 47 60 0,0
12.07.2020 09:00:00 13,2 11,2 14,2 14,5 16,3 16,7 5 3 7 4 NW 1024,6 35 50 0,0
12.07.2020 08:00:00 9,6 8,7 10,5 12,5 16,5 16,7 3 2 5 3 WNW 1025,8 1,7 43 0,0
12.07.2020 07:00:00 7,7 7,2 8,6 11,9 16,7 16,7 3 2 4 2 NNW 1026,0 0,4 41 0,0
12.07.2020 06:00:00 6,4 6,2 5,7 12,1 17,0 16,6 2 1 3 2 S 1026,2 0,2 0 0,0
12.07.2020 05:00:00 6,7 6,4 5,7 12,5 17,3 16,6 0 0 3 2 N 1025,9 0,5 0 0,0
12.07.2020 04:00:00 7,3 7,2 6,4 13,1 17,6 16,6 3 2 4 2 S 1025,5 0,2 0 0,0
12.07.2020 03:00:00 7,9 7,8 7,1 13,6 17,8 16,6 3 1 4 2 SSE 1025,7 0,7 0 0,0
12.07.2020 02:00:00 8,4 8,3 7,7 14,2 18,1 16,6 2 1 3 2 SSW 1025,6 0,1 0 0,0
12.07.2020 01:00:00 9,0 8,8 8,4 14,8 18,4 16,6 1 1 4 2 SSE 1025,7 0,2 0 0,0
12.07.2020 00:00:00 10,3 10,0 7,9 15,6 18,6 16,6 2 1 3 2 SE 1025,4 3,7 0 0,0
11.07.2020 23:00:00 11,9 11,5 10,7 16,4 18,8 16,6 0 0 4 2 N 1025,0 14 0 0,0
11.07.2020 22:00:00 12,3 11,2 10,7 17,1 18,9 16,6 1 1 8 4 N 1024,4 35 0 0,0
11.07.2020 21:00:00 13,3 11,1 12,4 17,8 19,1 16,6 7 4 11 6 E 1023,7 57 8 0,0
11.07.2020 20:00:00 13,7 11,9 13,5 18,4 19,1 16,6 7 4 31 17 S 1023,4 33 0 4,3
11.07.2020 19:00:00 15,8 12,0 16,1 19,5 19,1 16,6 8 5 20 11 SSW 1022,4 65 0 0,0
11.07.2020 18:00:00 16,3 11,8 16,7 19,9 19,0 16,6 5 3 10 5 ESE 1022,2 43 0 0,0
11.07.2020 17:00:00 16,7 10,6 17,6 20,6 18,8 16,6 8 4 15 8 E 1021,8 49 1 0,0
11.07.2020 16:00:00 16,6 10,9 19,0 20,7 18,6 16,6 10 5 21 11 ENE 1021,6 52 23 0,0
11.07.2020 15:00:00 16,5 12,7 20,4 19,2 18,5 16,6 10 5 19 10 ENE 1021,8 44 8 0,0
11.07.2020 14:00:00 14,7 11,5 15,9 19,4 18,4 16,6 12 6 23 13 NE 1022,1 43 8 0,0
11.07.2020 13:00:00 15,3 12,6 16,6 18,3 18,4 16,5 5 3 13 7 N 1021,6 30 0 0,0
11.07.2020 12:00:00 14,7 12,7 15,7 17,4 18,4 16,5 8 4 13 7 N 1021,4 19 0 0,2
11.07.2020 11:00:00 13,6 12,4 14,3 16,6 18,6 16,4 7 4 14 8 NNE 1021,2 3,9 0 1,7
11.07.2020 10:00:00 13,6 12,4 13,8 16,7 18,7 16,4 8 4 16 9 W 1020,8 7 0 4,1
11.07.2020 09:00:00 14,2 13,3 14,4 16,5 18,9 16,4 6 4 14 8 W 1020,2 4,7 0 1,7
11.07.2020 08:00:00 13,8 12,9 13,7 16,5 19,1 16,4 8 4 12 6 SSE 1019,3 26 0 2,3
11.07.2020 07:00:00 13,9 13,1 13,7 16,6 19,4 16,4 7 4 11 6 SSW 1019,1 16 0 2,0
11.07.2020 06:00:00 13,8 13,1 13,6 16,9 19,6 16,4 7 4 10 6 SE 1018,3 11 0 2,1
11.07.2020 05:00:00 14,1 13,6 14,0 17,2 19,9 16,4 4 2 9 5 SSE 1018,4 8 0 1,5
11.07.2020 04:00:00 14,3 13,9 14,2 17,5 20,2 16,4 5 3 7 4 SE 1018,5 9 0 3,3
11.07.2020 03:00:00 14,4 13,5 14,1 18,0 20,5 16,4 5 3 9 5 E 1019,0 8 0 5,5
11.07.2020 02:00:00 15,1 14,5 14,9 18,6 20,8 16,4 6 4 9 5 SE 1018,0 6 0 2,5
11.07.2020 01:00:00 15,4 14,5 15,2 18,9 21,1 16,4 4 2 14 8 E 1017,5 25 0 0,1
11.07.2020 00:00:00 15,8 14,1 15,1 19,4 21,4 16,4 8 4 16 9 E 1017,0 35 0 0,9
10.07.2020 23:00:00 16,2 14,9 15,8 20,1 21,7 16,4 5 3 17 9 S 1017,4 9 0 6,2
10.07.2020 22:00:00 16,8 15,8 16,4 21,2 21,9 16,4 9 5 16 8 NE 1015,7 20 0 8,3
10.07.2020 21:00:00 18,0 16,0 17,2 22,6 22,1 16,4 6 4 17 9 SSE 1015,5 41 0 0,0
10.07.2020 20:00:00 18,7 16,5 18,0 23,7 22,1 16,3 10 5 23 12 N 1014,3 40 0 1,3
10.07.2020 19:00:00 19,7 14,6 18,5 25,3 22,0 16,3 16 8 46 25 SSW 1013,1 25 0 0,0
10.07.2020 18:00:00 24,7 15,1 24,8 26,6 21,9 16,3 15 8 38 20 SW 1010,8 60 26 0,0
10.07.2020 17:00:00 25,7 15,7 28,2 26,4 21,7 16,3 21 12 35 19 WSW 1010,8 69 23 0,0
10.07.2020 16:00:00 24,8 14,5 26,2 26,4 21,4 16,3 19 10 36 19 WSW 1011,5 53 6 0,0
10.07.2020 15:00:00 24,8 14,2 26,2 27,1 21,0 16,3 18 10 30 16 WSW 1011,4 59 3 0,0
10.07.2020 14:00:00 24,7 13,2 26,4 27,8 20,6 16,3 26 14 42 23 WSW 1011,6 54 42 0,0
10.07.2020 13:00:00 25,7 14,4 29,7 26,7 20,2 16,3 24 13 39 21 WSW 1011,4 45 60 0,0
10.07.2020 12:00:00 25,0 13,3 28,8 25,1 19,8 16,3 24 13 37 20 WSW 1011,8 43 60 0,0
10.07.2020 11:00:00 24,2 12,9 27,3 23,2 19,6 16,3 20 11 31 17 WSW 1011,8 54 60 0,0
10.07.2020 10:00:00 23,7 12,7 25,9 21,6 19,5 16,3 15 8 26 14 SW 1011,9 55 60 0,0
10.07.2020 09:00:00 22,7 12,9 24,6 19,6 19,6 16,3 11 6 19 10 SW 1011,8 59 60 0,0
10.07.2020 08:00:00 20,7 13,3 21,1 17,7 19,8 16,3 4 2 5 3 SE 1012,2 61 60 0,0
10.07.2020 07:00:00 16,0 12,0 15,8 17,0 20,1 16,3 0 0 7 4 N 1013,9 61 54 0,0
10.07.2020 06:00:00 13,3 10,1 10,5 17,2 20,4 16,3 6 3 8 4 E 1015,0 74 0 0,0
10.07.2020 05:00:00 13,4 10,1 8,9 17,7 20,7 16,3 5 3 9 5 ENE 1015,2 71 0 0,0
10.07.2020 04:00:00 14,4 10,3 10,8 18,3 21,0 16,3 5 3 8 5 ESE 1015,0 75 0 0,0
10.07.2020 03:00:00 13,9 10,5 10,6 18,9 21,3 16,3 5 3 7 4 SE 1015,6 75 0 0,0
10.07.2020 02:00:00 13,9 10,8 9,7 19,6 21,6 16,2 2 1 12 7 S 1015,9 65 0 0,0
10.07.2020 01:00:00 14,2 10,9 11,3 20,4 21,9 16,2 4 2 9 5 S 1016,1 75 0 0,0
10.07.2020 00:00:00 15,9 11,2 12,2 21,4 22,2 16,2 3 1 9 5 SSE 1015,6 75 0 0,0
09.07.2020 23:00:00 17,2 11,6 13,5 22,5 22,4 16,2 5 3 9 5 SSE 1015,1 71 0 0,0
09.07.2020 22:00:00 18,1 11,6 14,0 23,9 22,5 16,2 7 4 11 6 SSE 1014,5 75 11 0,0
09.07.2020 21:00:00 21,9 12,0 18,6 25,5 22,5 16,2 10 5 14 8 S 1013,4 65 60 0,0
09.07.2020 20:00:00 24,5 11,3 24,9 26,9 22,4 16,2 13 7 24 13 SW 1012,8 72 60 0,0
09.07.2020 19:00:00 25,7 11,2 27,2 28,0 22,2 16,2 14 8 35 19 SW 1012,6 74 60 0,0
09.07.2020 18:00:00 26,1 10,1 28,4 28,7 21,8 16,2 16 9 36 20 WSW 1012,8 75 60 0,0
09.07.2020 17:00:00 26,0 10,5 29,3 29,1 21,4 16,2 25 13 36 20 WSW 1013,3 53 60 0,0
09.07.2020 16:00:00 25,7 11,2 29,2 29,2 20,9 16,2 22 12 34 19 WSW 1013,6 43 59 0,0
09.07.2020 15:00:00 25,0 10,2 29,6 28,9 20,4 16,2 22 12 32 17 W 1014,5 75 60 0,0
09.07.2020 14:00:00 25,1 11,2 30,6 28,0 19,8 16,2 16 9 28 15 SW 1014,9 75 60 0,0
09.07.2020 13:00:00 24,1 10,3 29,3 26,2 19,4 16,2 13 7 25 14 WSW 1015,7 75 59 0,0
09.07.2020 12:00:00 23,4 10,5 28,9 24,5 19,0 16,2 14 8 22 12 SW 1016,0 75 60 0,0
09.07.2020 11:00:00 22,5 10,3 27,2 22,3 18,8 16,2 10 5 22 12 SW 1016,6 75 39 0,0
09.07.2020 10:00:00 21,8 11,8 26,6 20,7 18,7 16,2 12 7 18 10 WSW 1016,9 55 60 0,0
09.07.2020 09:00:00 20,0 10,7 22,6 18,5 18,8 16,2 11 6 16 9 SW 1017,4 63 60 0,0
09.07.2020 08:00:00 17,6 11,7 19,8 16,8 19,0 16,2 8 4 11 6 S 1018,1 54 60 0,0
09.07.2020 07:00:00 13,4 9,6 14,0 16,1 19,2 16,2 2 1 7 4 NE 1019,2 69 52 0,0
09.07.2020 06:00:00 10,9 9,1 8,1 16,4 19,5 16,2 5 3 6 3 SSE 1019,7 65 0 0,0
09.07.2020 05:00:00 11,6 9,4 8,8 16,9 19,8 16,2 4 2 8 4 E 1019,3 67 0 0,0
09.07.2020 04:00:00 11,6 9,0 9,3 17,5 20,1 16,2 5 3 7 4 SE 1019,5 71 0 0,0
09.07.2020 03:00:00 12,4 9,5 9,6 18,2 20,3 16,2 6 3 8 5 SE 1019,4 64 0 0,0
09.07.2020 02:00:00 13,1 10,0 10,7 18,9 20,6 16,2 7 4 10 5 SE 1019,3 75 0 0,0
09.07.2020 01:00:00 13,9 11,0 10,7 19,8 20,8 16,2 4 2 9 5 SE 1019,4 61 0 0,0
09.07.2020 00:00:00 14,8 11,0 12,6 20,6 21,0 16,2 6 3 14 7 S 1019,1 67 0 0,0
08.07.2020 23:00:00 16,4 11,5 15,6 21,5 21,2 16,2 13 7 16 8 SSE 1018,2 72 0 0,0
08.07.2020 22:00:00 16,8 11,4 14,5 22,5 21,3 16,2 3 1 10 5 S 1017,9 75 0 0,0
08.07.2020 21:00:00 19,9 10,6 18,4 23,8 21,3 16,2 9 5 19 10 SW 1016,7 70 8 0,0
08.07.2020 20:00:00 21,4 9,6 20,6 25,1 21,2 16,2 14 7 31 17 SW 1015,9 68 21 0,0
08.07.2020 19:00:00 22,8 9,3 24,1 26,3 20,9 16,2 24 13 32 17 SW 1015,4 75 52 0,0
08.07.2020 18:00:00 22,6 8,4 24,8 27,1 20,6 16,2 21 11 34 18 SW 1015,4 75 59 0,0
08.07.2020 17:00:00 23,3 9,3 27,6 27,2 20,2 16,2 19 10 32 18 WSW 1015,3 48 60 0,0
08.07.2020 16:00:00 23,0 8,9 28,1 26,9 19,7 16,2 21 11 32 17 WSW 1015,3 63 59 0,0
08.07.2020 15:00:00 21,9 7,9 25,2 26,6 19,2 16,2 20 11 33 18 WSW 1015,9 48 60 0,0

tt = Température de l'air
td = dewpoint
tt 5cm = Température de l'air 5cm
tt -5cm = Température de l'air -5cm
tt -20cm = Température de l'air -20cm
tt -100cm = Température de l'air -100cm
ff = Vitesse du vent
fx = gusts
dd = Direction du vent
ppp = reduced air pressure
vv = visibility
sd = Ensoleillement
rr = Quantités de précipitations

stations d'obs. à proximité